リニア-ニート彗星

224P/LINEAR-NEAT (2003)

English version
Home page
Updated on September 13, 2009

---------------------------------------------------------------------

・ プロフィール

符号 224P/2003 XD10
発見日 2003年12月4日,14日
発見光度 19.2, 20.1等
発見者 Lincoln Laboratory Near-Earth Asteroid Research project, Near-Earth-Asteroid Tracking Team (Jet Propulsion Laboratory)

・ 軌道要素

Epoch 2003 Aug. 29.0 TT = JDT 2452880.5
T 2003 Sept. 16.84059 TT                                MPC
q   1.8808134            (2000.0)            P               Q
n   0.16156476     Peri.    9.14066     +0.60964186     -0.77308038
a   3.3386556      Node    43.55521     +0.71025858     +0.43463338
e   0.4366554      Incl.   14.72703     +0.35195105     +0.46199627
P   6.10

・ 星図

・ 光度変化

        m1 = 15.7 + 5 logΔ + 10.0 log r

---------------------------------------------------------------------

軌道要素はM.P.E.C. 2009-Q68に掲載されたものです。
星図は StellaNavigator Ver.2.0 for Windows (アストロアーツ編著 / アスキー出版局刊) で作成したものです。
光度グラフはComet for Windowsで作成したものです。

---------------------------------------------------------------------

Copyright(C) Seiichi Yoshida (comet@aerith.net). All rights reserved.